GW3869 Weather Reports


time (UTC)temp
C
wind
direction
speed
KPH
gust
KPH
rain 1hr
cm
rain 24hr
cm
rain mn
cm
humidity
%
barometer
mb
20260507213242 16 159 8.0 9.7 0.00 0.00 0.00 36 1012.6
20260507212739 16 201 3.2 12.9 0.00 0.00 0.00 39 1012.4
20260507212235 15 157 6.4 8.0 0.00 0.00 0.00 41 1012.4
20260507211732 16 177 3.2 17.7 0.00 0.00 0.00 38 1012.5
20260507211228 16 84 4.8 8.0 0.00 0.00 0.00 38 1012.4
20260507210725 16 141 6.4 11.3 0.00 0.00 0.00 33 1012.7
20260507210222 16 119 4.8 9.7 0.00 0.00 0.00 37 1012.6
20260507205718 16 212 4.8 8.0 0.00 0.00 0.00 39 1012.5
20260507205215 17 85 1.6 9.7 0.00 0.00 0.00 33 1012.2
20260507204711 17 189 3.2 8.0 0.00 0.00 0.00 35 1012.4
20260507204210 17 181 9.7 12.9 0.00 0.00 0.00 39 1012.2
20260507203707 17 169 6.4 11.3 0.00 0.00 0.00 35 1012.4
20260507203204 17 143 8.0 8.0 0.00 0.00 0.00 36 1012.6
20260507202700 16 144 12.9 12.9 0.00 0.00 0.00 37 1012.4
20260507202156 16 25 11.3 14.5 0.00 0.00 0.00 33 1012.2
20260507201651 17 93 6.4 8.0 0.00 0.00 0.00 35 1012.5
20260507201149 17 192 11.3 12.9 0.00 0.00 0.00 41 1012.1
20260507200645 17 192 6.4 16.1 0.00 0.00 0.00 33 1012.4
20260507200141 17 157 9.7 9.7 0.00 0.00 0.00 34 1012.3
20260507195638 17 176 6.4 11.3 0.00 0.00 0.00 37 1012.5
20260507195135 17 189 6.4 9.7 0.00 0.00 0.00 40 1012.6
20260507194631 18 157 8.0 14.5 0.00 0.00 0.00 33 1012.2
20260507194127 17 152 6.4 8.0 0.00 0.00 0.00 39 1012.4
20260507193624 17 138 6.4 9.7 0.00 0.00 0.00 36 1012.5
20260507193121 16 187 6.4 6.4 0.00 0.00 0.00 33 1012.4
20260507192617 16 163 3.2 12.9 0.00 0.00 0.00 47 1012.8
20260507192114 17 179 4.8 11.3 0.00 0.00 0.00 36 1012.6
20260507191610 16 70 4.8 8.0 0.00 0.00 0.00 36 1012.7
20260507191107 16 182 0.0 17.7 0.00 0.00 0.00 43 1012.7
20260507190604 16 247 3.2 6.4 0.00 0.00 0.00 34 1012.7
20260507185601 16 178 3.2 19.3 0.00 0.00 0.00 41 1012.6
20260507185057 16 146 8.0 12.9 0.00 0.00 0.00 34 1012.8
20260507184556 16 112 6.4 11.3 0.00 0.00 0.00 33 1012.7
20260507184053 16 185 4.8 11.3 0.00 0.00 0.00 40 1012.8
20260507183549 16 180 6.4 12.9 0.00 0.00 0.00 42 1012.7
20260507183046 16 133 6.4 11.3 0.00 0.00 0.00 38 1012.8
20260507182542 16 72 6.4 11.3 0.00 0.00 0.00 40 1012.5
20260507182038 16 155 9.7 9.7 0.00 0.00 0.00 34 1013.0
20260507181536 16 202 8.0 8.0 0.00 0.00 0.00 39 1012.8
20260507181032 16 180 4.8 12.9 0.00 0.00 0.00 44 1013.0
20260507180528 16 159 8.0 11.3 0.00 0.00 0.00 41 1013.0
20260507180025 15 184 4.8 20.9 0.00 0.00 0.00 43 1012.9
20260507175521 15 50 3.2 14.5 0.00 0.00 0.00 34 1013.1
20260507175019 15 359 6.4 9.7 0.00 0.00 0.00 34 1013.2
20260507174516 15 114 6.4 11.3 0.00 0.00 0.00 40 1013.3
20260507174014 15 139 12.9 14.5 0.00 0.00 0.00 38 1013.2
20260507173510 15 174 8.0 20.9 0.00 0.00 0.00 37 1013.5
20260507173008 15 107 3.2 12.9 0.00 0.00 0.00 34 1013.5
20260507172503 15 180 8.0 11.3 0.00 0.00 0.00 41 1013.5
20260507172000 15 165 6.4 9.7 0.00 0.00 0.00 44 1013.8
20260507171455 15 205 4.8 11.3 0.00 0.00 0.00 42 1013.8
20260507170953 15 116 11.3 11.3 0.00 0.00 0.00 38 1013.8
20260507170450 15 124 6.4 16.1 0.00 0.00 0.00 37 1013.7
20260507165946 15 75 4.8 6.4 0.00 0.00 0.00 36 1014.0
20260507165442 14 169 6.4 14.5 0.00 0.00 0.00 37 1014.1
20260507164938 14 109 9.7 14.5 0.00 0.00 0.00 41 1014.1
20260507164435 14 123 4.8 11.3 0.00 0.00 0.00 35 1014.1
20260507163932 14 151 4.8 16.1 0.00 0.00 0.00 42 1014.0
20260507163430 14 48 9.7 16.1 0.00 0.00 0.00 47 1013.9
20260507162927 13 81 4.8 14.5 0.00 0.00 0.00 38 1014.0
20260507162421 13 200 4.8 11.3 0.00 0.00 0.00 42 1014.1
20260507161919 13 102 14.5 16.1 0.00 0.00 0.00 41 1014.0
20260507161415 13 122 3.2 6.4 0.00 0.00 0.00 43 1013.9
20260507160912 13 1 6.4 12.9 0.00 0.00 0.00 38 1014.0
20260507160408 13 150 3.2 14.5 0.00 0.00 0.00 46 1014.2
20260507155904 13 32 4.8 16.1 0.00 0.00 0.00 42 1014.3
20260507155400 13 123 9.7 14.5 0.00 0.00 0.00 37 1014.0
20260507154857 13 157 6.4 17.7 0.00 0.00 0.00 45 1014.0
20260507154354 13 80 8.0 12.9 0.00 0.00 0.00 43 1014.1
20260507153852 12 44 6.4 17.7 0.00 0.00 0.00 44 1014.1
20260507153348 13 138 4.8 16.1 0.00 0.00 0.00 46 1014.1
20260507152844 12 107 3.2 9.7 0.00 0.00 0.00 47 1014.1
20260507152341 12 149 6.4 12.9 0.00 0.00 0.00 43 1014.1
20260507151837 12 127 6.4 14.5 0.00 0.00 0.00 47 1013.9
20260507151333 12 128 3.2 11.3 0.00 0.00 0.00 45 1014.0
20260507150830 12 97 8.0 8.0 0.00 0.00 0.00 41 1014.0
20260507150327 13 232 8.0 8.0 0.00 0.00 0.00 50 1014.0
20260507145823 13 169 4.8 11.3 0.00 0.00 0.00 48 1014.0
20260507145319 12 110 8.0 14.5 0.00 0.00 0.00 48 1013.8
20260507144817 12 92 3.2 19.3 0.00 0.00 0.00 47 1014.1
20260507144314 12 120 11.3 12.9 0.00 0.00 0.00 53 1014.0
20260507143810 12 76 4.8 8.0 0.00 0.00 0.00 54 1014.2
20260507143308 12 137 8.0 9.7 0.00 0.00 0.00 51 1014.2
20260507142803 11 86 4.8 11.3 0.00 0.00 0.00 52 1014.2
20260507142300 11 79 11.3 14.5 0.00 0.00 0.00 47 1014.1
20260507141756 11 166 8.0 24.1 0.00 0.00 0.00 47 1014.0
20260507141254 11 128 3.2 8.0 0.00 0.00 0.00 47 1014.2
20260507140750 11 137 4.8 17.7 0.00 0.00 0.00 52 1014.1
20260507140247 11 124 9.7 12.9 0.00 0.00 0.00 46 1014.4
20260507135744 11 49 11.3 11.3 0.00 0.00 0.00 47 1014.2
20260507135242 11 127 6.4 16.1 0.00 0.00 0.00 53 1014.2
20260507134738 11 111 4.8 12.9 0.00 0.00 0.00 52 1014.2
20260507134234 11 187 4.8 14.5 0.00 0.00 0.00 55 1013.9
20260507133730 11 113 6.4 11.3 0.00 0.00 0.00 56 1014.2
20260507133227 12 93 4.8 12.9 0.00 0.00 0.00 53 1014.1
20260507132725 12 114 4.8 11.3 0.00 0.00 0.00 53 1014.2
20260507132222 11 136 6.4 11.3 0.00 0.00 0.00 55 1014.0
20260507131718 11 97 4.8 8.0 0.00 0.00 0.00 57 1014.0
20260507131216 11 104 4.8 11.3 0.00 0.00 0.00 53 1014.1
20260507130712 11 113 11.3 12.9 0.00 0.00 0.00 56 1014.0
20260507130210 10 94 6.4 8.0 0.00 0.00 0.00 60 1014.1
20260507125708 10 83 4.8 8.0 0.00 0.00 0.00 61 1014.2
20260507125206 10 85 3.2 8.0 0.00 0.00 0.00 59 1014.0
20260507124702 10 120 6.4 8.0 0.00 0.00 0.00 63 1013.9
20260507124159 10 117 6.4 9.7 0.00 0.00 0.00 67 1013.9
20260507123657 9 89 4.8 6.4 0.00 0.00 0.00 66 1014.2
20260507123154 8 101 4.8 6.4 0.00 0.00 0.00 68 1014.1
20260507122649 8 104 4.8 4.8 0.00 0.00 0.00 68 1014.2
20260507122145 8 88 4.8 6.4 0.00 0.00 0.00 69 1014.3
20260507121642 8 92 4.8 6.4 0.00 0.00 0.00 71 1014.3
20260507121138 8 110 6.4 6.4 0.00 0.00 0.00 72 1014.4
20260507120634 7 108 6.4 6.4 0.00 0.00 0.00 75 1014.4
20260507120131 6 110 6.4 8.0 0.00 0.00 0.00 79 1014.3
20260507115627 6 101 4.8 8.0 0.00 0.00 0.00 80 1014.2
20260507115123 6 106 6.4 6.4 0.00 0.00 0.00 80 1014.3
20260507114619 6 106 6.4 6.4 0.00 0.00 0.00 80 1014.3
20260507114116 6 95 4.8 6.4 0.00 0.00 0.00 82 1014.1
20260507113614 5 108 6.4 8.0 0.00 0.00 0.00 84 1014.2
20260507113110 5 111 6.4 8.0 0.00 0.00 0.00 84 1014.3
20260507112608 5 112 6.4 8.0 0.00 0.00 0.00 85 1014.2
20260507112059 5 125 6.4 6.4 0.00 0.00 0.00 85 1014.1
20260507111556 5 102 4.8 6.4 0.00 0.00 0.00 86 1014.2
20260507111053 5 105 6.4 8.0 0.00 0.00 0.00 86 1013.9
20260507110549 5 114 6.4 8.0 0.00 0.00 0.00 85 1014.0
20260507110046 5 114 4.8 6.4 0.00 0.00 0.00 84 1013.8
20260507105542 5 104 4.8 6.4 0.00 0.00 0.00 85 1013.7
20260507105038 5 97 4.8 6.4 0.00 0.00 0.00 85 1013.4
20260507104536 5 105 6.4 6.4 0.00 0.00 0.00 86 1013.3
20260507104032 5 95 4.8 6.4 0.00 0.00 0.00 86 1013.2
20260507103529 5 114 6.4 8.0 0.00 0.00 0.00 86 1013.4
20260507103025 5 109 6.4 8.0 0.00 0.00 0.00 86 1013.4
20260507102522 5 118 8.0 8.0 0.00 0.00 0.00 86 1013.2
20260507102018 5 112 6.4 8.0 0.00 0.00 0.00 85 1013.7
20260507101514 5 118 6.4 6.4 0.00 0.00 0.00 85 1013.7
20260507101010 5 94 4.8 6.4 0.00 0.00 0.00 86 1013.5
20260507100508 5 118 4.8 6.4 0.00 0.00 0.00 87 1013.5
20260507100006 5 101 6.4 6.4 0.00 0.00 0.00 88 1013.5
20260507095503 5 106 6.4 6.4 0.00 0.00 0.00 88 1013.2
20260507095000 5 103 4.8 6.4 0.00 0.00 0.00 89 1013.5
20260507094456 5 100 6.4 6.4 0.00 0.00 0.00 90 1013.3
20260507093953 5 112 4.8 4.8 0.00 0.00 0.00 92 1013.7
20260507093450 5 92 4.8 6.4 0.00 0.00 0.00 93 1013.5
20260507092949 5 96 6.4 6.4 0.00 0.00 0.00 95 1013.4
20260507092445 5 86 4.8 6.4 0.00 0.00 0.00 95 1013.4
20260507091942 5 98 4.8 6.4 0.00 0.00 0.00 96 1013.2
20260507091438 5 94 4.8 4.8 0.00 0.00 0.00 96 1013.4
20260507090934 5 100 6.4 6.4 0.00 0.00 0.00 96 1013.2
20260507090430 5 117 8.0 9.7 0.00 0.00 0.00 96 1013.1
20260507085927 5 120 8.0 9.7 0.00 0.00 0.00 96 1013.3
20260507085424 5 123 8.0 9.7 0.00 0.00 0.00 96 1013.2
20260507084921 5 122 8.0 9.7 0.00 0.00 0.00 96 1013.3
20260507084418 5 122 8.0 9.7 0.00 0.00 0.00 96 1013.0
20260507083915 5 121 8.0 9.7 0.00 0.00 0.00 96 1013.1
20260507083412 5 127 8.0 9.7 0.00 0.00 0.00 95 1013.0
20260507082908 5 122 8.0 9.7 0.00 0.00 0.00 95 1013.0
20260507082403 5 124 9.7 9.7 0.00 0.00 0.00 95 1012.9
20260507081901 5 127 8.0 9.7 0.00 0.00 0.00 95 1012.9
20260507081357 5 126 9.7 9.7 0.00 0.00 0.00 95 1012.7
20260507080854 5 130 9.7 9.7 0.00 0.00 0.00 95 1012.9
20260507080350 5 120 8.0 9.7 0.00 0.00 0.00 95 1013.0
20260507075845 5 127 8.0 9.7 0.00 0.00 0.00 94 1012.9
20260507075341 5 131 8.0 8.0 0.00 0.00 0.00 94 1012.8
20260507074838 5 127 8.0 9.7 0.00 0.00 0.00 94 1012.9
20260507074336 5 124 8.0 11.3 0.00 0.00 0.00 94 1013.0
20260507073833 5 123 8.0 8.0 0.00 0.00 0.00 94 1013.0
20260507073329 5 122 8.0 8.0 0.00 0.00 0.00 94 1012.9
20260507072826 5 120 8.0 8.0 0.00 0.00 0.00 94 1012.8
20260507072324 5 124 8.0 8.0 0.00 0.00 0.00 93 1013.1
20260507071821 5 130 8.0 8.0 0.00 0.00 0.00 93 1013.1
20260507071318 5 134 6.4 8.0 0.00 0.00 0.00 93 1013.1
20260507070814 5 131 8.0 9.7 0.00 0.00 0.00 93 1013.0
20260507070312 6 136 8.0 9.7 0.00 0.00 0.00 93 1012.9
20260507065808 6 137 8.0 9.7 0.00 0.00 0.00 92 1013.2
20260507065306 6 130 8.0 9.7 0.00 0.00 0.00 92 1012.9
20260507064802 6 136 9.7 9.7 0.00 0.00 0.00 91 1012.8
20260507064301 6 123 8.0 8.0 0.00 0.00 0.00 91 1012.8
20260507063758 6 121 8.0 9.7 0.00 0.00 0.00 91 1013.2
20260507063255 6 113 8.0 9.7 0.00 0.00 0.00 91 1012.8
20260507062752 6 120 9.7 9.7 0.00 0.00 0.00 90 1013.0
20260507062249 6 118 8.0 8.0 0.00 0.00 0.00 90 1012.9
20260507061747 6 117 6.4 8.0 0.00 0.00 0.00 89 1013.1
20260507061244 6 113 8.0 8.0 0.00 0.00 0.00 89 1013.0
20260507060743 6 113 6.4 8.0 0.00 0.00 0.00 88 1013.2
20260507060239 6 111 6.4 8.0 0.00 0.00 0.00 88 1013.2
20260507055735 6 125 8.0 9.7 0.00 0.00 0.00 88 1013.3
20260507055231 6 124 8.0 8.0 0.00 0.00 0.00 88 1013.0
20260507054727 6 113 6.4 8.0 0.00 0.00 0.00 87 1013.0
20260507054224 7 124 6.4 8.0 0.00 0.00 0.00 86 1013.1
20260507053722 7 123 8.0 9.7 0.00 0.00 0.00 86 1013.2
20260507053219 7 125 8.0 9.7 0.00 0.00 0.00 84 1013.1
20260507052718 7 129 8.0 8.0 0.00 0.00 0.00 84 1013.2
20260507052214 7 111 6.4 8.0 0.00 0.00 0.00 84 1013.2
20260507051712 7 123 8.0 8.0 0.00 0.00 0.00 82 1013.2
20260507051208 7 136 8.0 8.0 0.00 0.00 0.00 82 1013.4
20260507050705 7 126 8.0 8.0 0.00 0.00 0.00 81 1012.9
20260507050202 7 121 8.0 8.0 0.00 0.00 0.00 82 1012.9
20260507045659 7 114 6.4 8.0 0.00 0.00 0.00 81 1013.2
20260507045156 7 130 8.0 8.0 0.00 0.00 0.00 80 1013.3
20260507044652 7 119 8.0 9.7 0.00 0.00 0.00 81 1013.2
20260507044149 7 119 8.0 8.0 0.00 0.00 0.00 81 1013.4
20260507043645 7 115 6.4 6.4 0.00 0.00 0.00 81 1013.3
20260507043142 7 117 8.0 8.0 0.00 0.00 0.00 82 1013.3
20260507042638 7 126 8.0 9.7 0.00 0.00 0.00 80 1013.1
20260507042134 7 131 8.0 9.7 0.00 0.00 0.00 82 1013.7
20260507041630 7 124 6.4 8.0 0.00 0.00 0.00 82 1013.3
20260507041121 7 129 8.0 9.7 0.00 0.00 0.00 82 1013.5
20260507040619 8 134 8.0 9.7 0.00 0.00 0.00 82 1013.3
20260507040115 8 139 8.0 9.7 0.00 0.00 0.00 81 1013.5
20260507035611 8 125 9.7 9.7 0.00 0.00 0.00 82 1013.2
20260507035108 8 115 8.0 9.7 0.00 0.00 0.00 83 1013.1
20260507034604 8 116 8.0 9.7 0.00 0.00 0.00 84 1013.2
20260507034102 8 110 8.0 9.7 0.00 0.00 0.00 83 1013.1
20260507033600 8 105 6.4 8.0 0.00 0.00 0.00 84 1013.1
20260507033056 8 116 8.0 8.0 0.00 0.00 0.00 81 1013.0
20260507032554 8 120 8.0 9.7 0.00 0.00 0.00 79 1013.4
20260507032050 8 127 8.0 9.7 0.00 0.00 0.00 77 1013.1
20260507031547 8 124 8.0 9.7 0.00 0.00 0.00 76 1013.4
20260507031044 9 131 8.0 9.7 0.00 0.00 0.00 76 1013.4
20260507030540 9 117 8.0 9.7 0.00 0.00 0.00 76 1013.2
20260507030038 9 124 8.0 9.7 0.00 0.00 0.00 76 1013.2
20260507025535 9 122 11.3 11.3 0.00 0.00 0.00 78 1013.1
20260507025032 9 118 9.7 9.7 0.00 0.00 0.00 77 1013.3
20260507024530 10 113 9.7 11.3 0.00 0.00 0.00 77 1013.0
20260507024027 10 122 8.0 9.7 0.00 0.00 0.00 76 1013.3
20260507023522 10 120 8.0 8.0 0.00 0.00 0.00 75 1013.0
20260507023021 10 113 9.7 9.7 0.00 0.00 0.00 74 1012.9
20260507022517 10 118 8.0 8.0 0.00 0.00 0.00 73 1013.1
20260507022012 10 119 8.0 9.7 0.00 0.00 0.00 73 1013.1
20260507021508 10 115 6.4 8.0 0.00 0.00 0.00 73 1013.1
20260507021005 10 112 6.4 6.4 0.00 0.00 0.00 73 1012.9
20260507020502 10 100 4.8 6.4 0.00 0.00 0.00 72 1013.0
20260507015959 10 100 6.4 6.4 0.00 0.00 0.00 71 1012.7
20260507015458 10 110 6.4 6.4 0.00 0.00 0.00 71 1012.9
20260507014955 10 101 6.4 6.4 0.00 0.00 0.00 69 1012.8
20260507014451 11 106 6.4 6.4 0.00 0.00 0.00 68 1012.7
20260507013947 11 106 6.4 8.0 0.00 0.00 0.00 68 1012.8
20260507013444 11 101 6.4 6.4 0.00 0.00 0.00 67 1012.5
20260507012941 11 113 6.4 6.4 0.00 0.00 0.00 65 1012.7
20260507012438 11 105 6.4 6.4 0.00 0.00 0.00 66 1012.8
20260507011934 11 110 6.4 6.4 0.00 0.00 0.00 65 1012.8
20260507011431 11 106 4.8 6.4 0.00 0.00 0.00 66 1012.4
20260507010926 11 103 4.8 6.4 0.00 0.00 0.00 66 1012.5
20260507010421 11 91 3.2 4.8 0.00 0.00 0.00 66 1012.3
20260507005918 11 101 6.4 6.4 0.00 0.00 0.00 68 1012.3
20260507005415 11 112 6.4 6.4 0.00 0.00 0.00 66 1012.4
20260507004912 12 103 4.8 4.8 0.00 0.00 0.00 64 1012.5
20260507004409 12 111 6.4 6.4 0.00 0.00 0.00 65 1012.4
20260507003906 12 109 4.8 6.4 0.00 0.00 0.00 63 1012.3
20260507003401 12 104 4.8 4.8 0.00 0.00 0.00 61 1012.3
20260507002857 12 115 6.4 8.0 0.00 0.00 0.00 65 1012.2
20260507002353 12 109 4.8 4.8 0.00 0.00 0.00 61 1012.3
20260507001850 12 117 6.4 6.4 0.00 0.00 0.00 60 1012.2
20260507001347 13 107 4.8 6.4 0.00 0.00 0.00 65 1012.2
20260507000844 13 135 8.0 8.0 0.00 0.00 0.00 60 1012.2
20260507000339 13 115 6.4 8.0 0.00 0.00 0.00 61 1011.8
20260506235836 13 152 4.8 6.4 0.00 0.00 0.00 57 1012.1
20260506235333 13 129 4.8 8.0 0.00 0.00 0.00 58 1011.9
20260506234829 13 96 3.2 8.0 0.00 0.00 0.00 58 1012.1
20260506234327 13 104 14.5 14.5 0.00 0.00 0.00 60 1011.7
20260506233824 13 127 11.3 11.3 0.00 0.00 0.00 59 1011.8
20260506233319 13 153 4.8 8.0 0.00 0.00 0.00 60 1011.7
20260506232817 14 136 9.7 9.7 0.00 0.00 0.00 61 1011.7
20260506232312 14 126 4.8 8.0 0.00 0.00 0.00 54 1011.7
20260506231809 14 127 6.4 8.0 0.00 0.00 0.00 59 1011.7
20260506231307 14 137 8.0 8.0 0.00 0.00 0.00 58 1011.7
20260506230804 14 135 6.4 8.0 0.00 0.00 0.00 56 1011.3
20260506230301 14 86 6.4 9.7 0.00 0.00 0.00 55 1011.2
20260506225757 14 120 6.4 11.3 0.00 0.00 0.00 56 1011.0
20260506225254 14 126 3.2 8.0 0.00 0.00 0.00 54 1011.2
20260506224745 14 110 6.4 8.0 0.00 0.00 0.00 57 1011.4
20260506224243 14 126 3.2 8.0 0.00 0.00 0.00 55 1011.6
20260506223738 14 120 6.4 8.0 0.00 0.00 0.00 56 1011.5
20260506223234 14 154 6.4 8.0 0.00 0.00 0.00 54 1011.2
20260506222731 14 145 4.8 9.7 0.00 0.00 0.00 59 1011.4
20260506222226 14 100 3.2 14.5 0.00 0.00 0.00 54 1011.6
20260506221725 14 63 3.2 6.4 0.00 0.00 0.00 53 1011.5
20260506221223 15 124 8.0 9.7 0.00 0.00 0.00 56 1011.6
20260506220720 15 111 6.4 9.7 0.00 0.00 0.00 56 1011.5
20260506220214 15 94 4.8 8.0 0.00 0.00 0.00 54 1011.4
20260506215711 15 80 3.2 8.0 0.00 0.00 0.00 51 1011.7
20260506215207 15 108 4.8 11.3 0.00 0.00 0.00 50 1011.5
20260506214704 15 115 4.8 8.0 0.00 0.00 0.00 50 1011.8
20260506214201 15 121 9.7 9.7 0.00 0.00 0.00 50 1011.7
20260506213659 15 119 4.8 8.0 0.00 0.00 0.00 50 1011.7